Weather in Osorno

Chile     40°34′22″S   73°08′38″W
temp.,
°C
wind,
m/s
gust,
m/s
humid.,
%
clouds,
%
prec.,
mm/h
press.,
hPa
HPBL,
m
19 april, mon
mon1923:00+14nne3997100 0.3 1010463
02:00+15nne31194100 0.4 1008692
05:00+16n41488100 0.1 10071379
08:00+15n31195100 6.3 1005725
11:00+15nw2796100 12.1 1007381
14:00+13ssw1397100 13.9 1010297
17:00+11sse2698100 7.5 1011451
20:00+10ssw1598100 17.7 1013285
20 april, tue
tue2023:00+9ssw1398100 4.9 1013249
02:00+9sse1499100 8.9 1012204
05:00+9ssw1598100 2.8 1012348
08:00+9ssw1698100 9.4 1013440
11:00+9s1696100 3.9 1014429
14:00+10ssw2696100 4.3 1013520
17:00+9ssw2796100 0.1 1013502
20:00+9ssw269698 0.3 1016420
21 april, wed
wed2123:00+8sse1796100 0.1 1018401
02:00+8wsw1397100 0.4 1018192
05:00+8s1697100 0.0 1019416
08:00+8s0297100 0.1 1021172
11:00+9ssw1494100 0.0 1020342
14:00+10s028595 0.0 1020419
17:00+11nne2278100 0.0 1019261
20:00+6ene00986 0.0 102010
22 april, thu
thu2223:00+6e0099100 0.0 101914
02:00+5wnw0099100 0.0 101913
05:00+4nne0099100 0.0 101814
08:00+4ne009994 0.0 101831
11:00+11nne126943 0.0 1017495
14:00+15n124426 0.0 10151053
17:00+14ne135466 0.0 1014136
20:00+9nnw117699 0.0 101517
23 april, fri
fri2323:00+7nnw117690 0.0 101513
02:00+8ne117810 0.3 101537
05:00+8n128994 0.1 101463
08:00+7nw019812 0.1 101624
11:00+13nnw12756 0.3 1017617
14:00+15wnw2454100 1.2 10161586
17:00+13wnw127799 0.6 1017130
20:00+8wnw11969 0.6 102012